Find Starlink 3782

NORAD ID: 52273 Int'l Des: 2022-041 Owner: SPXS Country: US Constellation: starlink operational
LEOCIRCULAR

Live Position

Loading 3D Globe...

About Starlink 3782

Description loading...

Upcoming Passes

Passes for default location (London). Set your location on the main map for personalized predictions.

Altitude History

Loading altitude history...

Two-Line Element Set

1 52273U 22041N 26139.73058684 .00000429 00000-0 45036-4 0 9997
2 52273 53.2169 140.5876 0001099 79.2081 280.9035 15.08833382225225
Epoch: May 19, 2026 • Age: 13 hours

Current Status

Altitude 543.2 km
Velocity 7.60 km/s
Sub-Earth Point 41.68°N, 63.28°W
Launch Date Apr 21, 2022
Age 4 years
Type internet

Technical Details

Classification Payload
Mass 297.00 kg
Dry Mass 275.00 kg
Total Mass 297.00 kg
Length 0.20 m
Diameter 2.80 m
Span 9.00 m
Shape Box + pan
Manufacturer SPXS
Bus Type Starlink
Phase Status In Orbit
Owner/State SPXS/US

Most Searched